H1 CPF 2 NER 2021 1 2 9 002 01 glonass141 H2 1908801 9141 44850 2021 1 2 0 0 0 2021 1 5 23 45 0 900 1 1 0 0 0 1 H9 10 0 59216 0.00000 0 20998104.915 13162879.469 -6040826.210 10 0 59216 900.00000 0 21536146.763 13367350.899 -2883936.640 10 0 59216 1800.00000 0 21758340.653 13319426.100 328967.284 10 0 59216 2700.00000 0 21631196.768 13063625.617 3535490.141 10 0 59216 3600.00000 0 21132813.073 12651256.082 6673397.373 10 0 59216 4500.00000 0 20253933.844 12138036.214 9681822.299 10 0 59216 5400.00000 0 18998493.439 11581552.081 12502443.580 10 0 59216 6300.00000 0 17383622.490 11038649.491 15080610.462 10 0 59216 7200.00000 0 15439116.474 10562873.660 17366394.294 10 0 59216 8100.00000 0 13206388.892 10202063.865 19315546.683 10 0 59216 9000.00000 0 10736952.475 9996203.953 20890346.682 10 0 59216 9900.00000 0 8090491.287 9975618.519 22060321.582 10 0 59216 10800.00000 0 5332603.096 10159590.011 22802828.540 10 0 59216 11700.00000 0 2532304.657 10555454.346 23103486.757 10 0 59216 12600.00000 0 -240597.841 11158212.826 22956452.648 10 0 59216 13500.00000 0 -2918165.678 11950676.727 22364533.158 10 0 59216 14400.00000 0 -5436903.348 12904139.075 21339135.123 10 0 59216 15300.00000 0 -7740147.807 13979546.279 19900051.345 10 0 59216 16200.00000 0 -9780173.504 15129121.679 18075086.822 10 0 59216 17100.00000 0 -11519926.969 16298374.211 15899531.344 10 0 59216 18000.00000 0 -12934319.559 17428409.173 13415487.505 10 0 59216 18900.00000 0 -14011025.115 18458445.158 10671065.877 10 0 59216 19800.00000 0 -14750749.547 19328432.179 7719461.720 10 0 59216 20700.00000 0 -15166961.104 19981661.156 4617930.234 10 0 59216 21600.00000 0 -15285092.695 20367254.830 1426679.533 10 0 59216 22500.00000 0 -15141249.778 20442434.462 -1792297.514 10 0 59216 23400.00000 0 -14780478.252 20174465.777 -4976429.721 10 0 59216 24300.00000 0 -14254665.653 19542200.643 -8063788.494 10 0 59216 25200.00000 0 -13620164.650 18537147.894 -10994298.820 10 0 59216 26100.00000 0 -12935239.880 17164026.453 -13710915.860 10 0 59216 27000.00000 0 -12257446.808 15440775.810 -16160743.387 10 0 59216 27900.00000 0 -11641054.333 13398021.856 -18296071.490 10 0 59216 28800.00000 0 -11134621.016 11078019.261 -20075312.512 10 0 59216 29700.00000 0 -10778828.236 8533113.737 -21463816.514 10 0 59216 30600.00000 0 -10604662.624 5823787.760 -22434550.045 10 0 59216 31500.00000 0 -10632025.106 3016371.091 -22968624.797 10 0 59216 32400.00000 0 -10868825.752 180511.274 -23055665.889 10 0 59216 33300.00000 0 -11310602.841 -2613490.562 -22694012.734 10 0 59216 34200.00000 0 -11940682.306 -5297367.707 -21890748.773 10 0 59216 35100.00000 0 -12730870.761 -7807487.989 -20661559.731 10 0 59216 36000.00000 0 -13642652.687 -10087258.104 -19030423.381 10 0 59216 36900.00000 0 -14628840.979 -12089232.514 -17029137.131 10 0 59216 37800.00000 0 -15635610.887 -13776839.844 -14696692.868 10 0 59216 38700.00000 0 -16604831.130 -15125655.859 -12078511.497 10 0 59216 39600.00000 0 -17476593.363 -16124171.123 -9225552.485 10 0 59216 40500.00000 0 -18191832.843 -16774022.896 -6193316.121 10 0 59216 41400.00000 0 -18694929.297 -17089683.318 -3040758.386 10 0 59216 42300.00000 0 -18936177.891 -17097618.827 170859.846 10 0 59216 43200.00000 0 -18874025.864 -16834958.053 3379166.401 10 0 59216 44100.00000 0 -18476980.362 -16347725.959 6521890.518 10 0 59216 45000.00000 0 -17725107.114 -15688720.107 9538070.705 10 0 59216 45900.00000 0 -16611056.906 -14915119.675 12369234.173 10 0 59216 46800.00000 0 -15140576.789 -14085928.751 14960525.106 10 0 59216 47700.00000 0 -13332484.625 -13259361.935 17261760.219 10 0 59216 48600.00000 0 -11218107.905 -12490282.235 19228391.863 10 0 59216 49500.00000 0 -8840209.974 -11827798.615 20822360.971 10 0 59216 50400.00000 0 -6251447.912 -11313123.510 22012824.334 10 0 59216 51300.00000 0 -3512425.441 -10977779.459 22776743.276 10 0 59216 52200.00000 0 -689420.561 -10842229.342 23099323.356 10 0 59216 53100.00000 0 2148119.034 -10914987.010 22974297.375 10 0 59216 54000.00000 0 4930210.520 -11192245.234 22404046.741 10 0 59216 54900.00000 0 7588992.940 -11658036.559 21399558.921 10 0 59216 55800.00000 0 10061298.016 -12284920.640 19980221.525 10 0 59216 56700.00000 0 12291029.659 -13035169.948 18173456.317 10 0 59216 57600.00000 0 14231254.633 -13862405.016 16014199.222 10 0 59216 58500.00000 0 15845918.290 -14713611.574 13544235.244 10 0 59216 59400.00000 0 17111114.574 -15531455.820 10811399.888 10 0 59216 60300.00000 0 18015857.617 -16256801.182 7868661.364 10 0 59216 61200.00000 0 18562322.651 -16831321.072 4773100.421 10 0 59216 62100.00000 0 18765546.079 -17200097.509 1584806.929 10 0 59216 63000.00000 0 18652597.161 -17314095.592 -1634285.776 10 0 59216 63900.00000 0 18261255.973 -17132408.467 -4821605.983 10 0 59216 64800.00000 0 17638253.394 -16624176.743 -7915164.376 10 0 59216 65700.00000 0 16837147.497 -15770099.744 -10854766.114 10 0 59216 66600.00000 0 15915926.359 -14563473.054 -13583189.727 10 0 59216 67500.00000 0 14934439.112 -13010706.815 -16047309.041 10 0 59216 68400.00000 0 13951764.394 -11131301.153 -18199135.420 10 0 59216 69300.00000 0 13023628.134 -8957278.250 -19996759.257 10 0 59216 70200.00000 0 12199980.413 -6532093.505 -21405171.828 10 0 59216 71100.00000 0 11522834.315 -3909070.360 -22396951.177 10 0 59216 72000.00000 0 11024458.412 -1149423.501 -22952798.450 10 0 59216 72900.00000 0 10725999.388 1680047.512 -23061914.277 10 0 59216 73800.00000 0 10636592.908 4509498.396 -22722207.984 10 0 59216 74700.00000 0 10753000.041 7268708.339 -21940335.757 10 0 59216 75600.00000 0 11059784.223 9889765.345 -20731567.240 10 0 59216 76500.00000 0 11530020.773 12309657.174 -19119483.421 10 0 59216 77400.00000 0 12126508.411 14472660.248 -17135511.905 10 0 59216 78300.00000 0 12803431.012 16332427.553 -14818308.928 10 0 59216 79200.00000 0 13508398.678 17853689.254 -12213000.363 10 0 59216 80100.00000 0 14184781.283 19013495.974 -9370296.923 10 0 59216 81000.00000 0 14774235.181 19801954.088 -6345501.193 10 0 59216 81900.00000 0 15219315.754 20222423.797 -3197426.244 10 0 59216 82800.00000 0 15466064.872 20291173.266 12752.490 10 0 59216 83700.00000 0 15466463.555 20036505.183 3222689.228 10 0 59216 84600.00000 0 15180646.018 19497394.125 6370080.159 10 0 59216 85500.00000 0 14578781.513 18721693.584 9393872.039 10 0 59217 0.00000 0 13642544.677 17763989.394 12235443.458 10 0 59217 900.00000 0 12366111.967 16683190.851 14839736.305 10 0 59217 1800.00000 0 10756643.633 15539961.104 17156315.012 10 0 59217 2700.00000 0 8834228.689 14394095.546 19140334.776 10 0 59217 3600.00000 0 6631296.947 13301957.180 20753400.230 10 0 59217 4500.00000 0 4191520.771 12314076.615 21964299.161 10 0 59217 5400.00000 0 1568252.006 11473016.110 22749598.217 10 0 59217 6300.00000 0 -1177442.244 10811586.249 23094090.097 10 0 59217 7200.00000 0 -3979064.671 10351488.989 22991084.371 10 0 59217 8100.00000 0 -6767200.470 10102443.073 22442536.835 10 0 59217 9000.00000 0 -9472155.215 10061827.890 21459015.031 10 0 59217 9900.00000 0 -12026610.098 10214860.549 20059500.320 10 0 59217 10800.00000 0 -14368185.996 10535298.883 18271029.685 10 0 59217 11700.00000 0 -16441811.205 10986641.379 16128183.188 10 0 59217 12600.00000 0 -18201795.355 11523774.333 13672425.844 10 0 59217 13500.00000 0 -19613523.835 12094997.766 10951315.394 10 0 59217 14400.00000 0 -20654702.347 12644345.530 8017590.088 10 0 59217 15300.00000 0 -21316099.514 13114102.318 4928153.203 10 0 59217 16200.00000 0 -21601756.253 13447411.563 1742973.292 10 0 59217 17100.00000 0 -21528652.792 13590863.858 -1476078.900 10 0 59217 18000.00000 0 -21125846.947 13496955.829 -4666434.151 10 0 59217 18900.00000 0 -20433119.690 13126314.440 -7766045.351 10 0 59217 19800.00000 0 -19499184.984 12449591.243 -10714600.652 10 0 59217 20700.00000 0 -18379539.496 11448944.862 -13454704.613 10 0 59217 21600.00000 0 -17134043.221 10119047.261 -15933003.534 10 0 59217 22500.00000 0 -15824333.557 8467569.491 -18101232.202 10 0 59217 23400.00000 0 -14511182.524 6515124.752 -19917160.859 10 0 59217 24300.00000 0 -13251909.176 4294669.517 -21345423.412 10 0 59217 25200.00000 0 -12097956.752 1850386.512 -22358210.417 10 0 59217 26100.00000 0 -11092737.065 -763904.691 -22935813.071 10 0 59217 27000.00000 0 -10269833.055 -3486743.813 -23067007.706 10 0 59217 27900.00000 0 -9651635.067 -6251349.976 -22749273.352 10 0 59217 28800.00000 0 -9248467.971 -8988169.271 -21988838.334 10 0 59217 29700.00000 0 -9058245.266 -11627543.876 -20800555.251 10 0 59217 30600.00000 0 -9066663.961 -14102391.715 -19207606.978 10 0 59217 31500.00000 0 -9247931.092 -16350785.149 -17241049.690 10 0 59217 32400.00000 0 -9565990.241 -18318321.556 -14939202.070 10 0 59217 33300.00000 0 -9976195.200 -19960187.426 -12346892.853 10 0 59217 34200.00000 0 -10427359.105 -21242830.429 -9514581.755 10 0 59217 35100.00000 0 -10864091.442 -22145170.515 -6497371.299 10 0 59217 36000.00000 0 -11229323.259 -22659300.570 -3353929.233 10 0 59217 36900.00000 0 -11466913.034 -22790648.591 -145343.107 10 0 59217 37800.00000 0 -11524222.435 -22557596.123 3066070.177 10 0 59217 38700.00000 0 -11354552.595 -21990570.552 6217976.264 10 0 59217 39600.00000 0 -10919337.748 -21130650.851 9249232.696 10 0 59217 40500.00000 0 -10190003.456 -20027746.722 12101072.079 10 0 59217 41400.00000 0 -9149411.013 -18738428.648 14718236.289 10 0 59217 42300.00000 0 -7792827.192 -17323500.686 17050039.941 10 0 59217 43200.00000 0 -6128378.440 -15845418.126 19051343.304 10 0 59217 44100.00000 0 -4176970.130 -14365658.097 20683416.671 10 0 59217 45000.00000 0 -1971673.769 -12942152.776 21914680.486 10 0 59217 45900.00000 0 443393.117 -11626891.716 22721308.052 10 0 59217 46800.00000 0 3014648.900 -10463792.484 23087680.182 10 0 59217 47700.00000 0 5681027.071 -9486927.488 23006683.827 10 0 59217 48600.00000 0 8376272.191 -8719179.969 22479849.442 10 0 59217 49500.00000 0 11031458.997 -8171384.398 21517324.583 10 0 59217 50400.00000 0 13577631.785 -7841986.589 20137683.985 10 0 59217 51300.00000 0 15948456.143 -7717237.432 18367579.157 10 0 59217 52200.00000 0 18082774.327 -7771912.098 16241233.270 10 0 59217 53100.00000 0 19926958.986 -7970524.866 13799789.985 10 0 59217 54000.00000 0 21436967.969 -8268988.961 11090527.538 10 0 59217 54900.00000 0 22580014.811 -8616652.070 8165952.079 10 0 59217 55800.00000 0 23335784.985 -8958622.207 5082786.892 10 0 59217 56700.00000 0 23697146.699 -9238285.943 1900876.336 10 0 59217 57600.00000 0 23670325.931 -9399912.543 -1317974.599 10 0 59217 58500.00000 0 23274537.728 -9391233.379 -4511202.515 10 0 59217 59400.00000 0 22541088.788 -9165886.635 -7616705.913 10 0 59217 60300.00000 0 21511988.693 -8685622.567 -10574059.271 10 0 59217 61200.00000 0 20238128.116 -7922174.536 -13325696.349 10 0 59217 62100.00000 0 18777100.809 -6858714.937 -15818038.856 10 0 59217 63000.00000 0 17190761.355 -5490832.670 -18002547.646 10 0 59217 63900.00000 0 15542622.022 -3826989.152 -19836675.127 10 0 59217 64800.00000 0 13895198.730 -1888431.907 -21284699.822 10 0 59217 65700.00000 0 12307418.270 291432.175 -22318426.396 10 0 59217 66600.00000 0 10832196.191 2668178.858 -22917737.337 10 0 59217 67500.00000 0 9514287.264 5187977.056 -23070985.505 10 0 59217 68400.00000 0 8388498.729 7789601.223 -22775220.049 10 0 59217 69300.00000 0 7478341.040 10406762.034 -22036241.445 10 0 59217 70200.00000 0 6795172.086 12970658.399 -20868484.835 10 0 59217 71100.00000 0 6337869.915 15412644.602 -19294734.178 10 0 59217 72000.00000 0 6093046.613 17666901.348 -17345673.012 10 0 59217 72900.00000 0 6035792.989 19672999.484 -15059280.884 10 0 59217 73800.00000 0 6130921.320 21378249.635 -12480087.425 10 0 59217 74700.00000 0 6334652.345 22739739.911 -9658299.023 10 0 59217 75600.00000 0 6596673.910 23725977.140 -6648815.484 10 0 59217 76500.00000 0 6862483.084 24318063.724 -3510156.283 10 0 59217 77400.00000 0 7075911.617 24510361.818 -303317.924 10 0 59217 78300.00000 0 7181727.083 24310618.217 2909414.859 10 0 59217 79200.00000 0 7128199.019 23739546.043 6065680.496 10 0 59217 80100.00000 0 6869521.144 22829882.085 9104250.564 10 0 59217 81000.00000 0 6367987.060 21624960.661 11966214.741 10 0 59217 81900.00000 0 5595827.483 20176864.856 14596117.869 10 0 59217 82800.00000 0 4536631.535 18544233.445 16943027.337 10 0 59217 83700.00000 0 3186292.219 16789815.781 18961510.814 10 0 59217 84600.00000 0 1553436.124 14977876.965 20612506.294 10 0 59217 85500.00000 0 -340681.022 13171561.397 21864068.603 10 0 59218 0.00000 0 -2462809.217 11430324.038 22691979.075 10 0 59218 900.00000 0 -4768844.416 9807535.638 23080207.672 10 0 59218 1800.00000 0 -7205426.812 8348360.066 23021219.346 10 0 59218 2700.00000 0 -9711933.683 7087992.144 22516119.379 10 0 59218 3600.00000 0 -12222784.459 6050326.750 21574635.047 10 0 59218 4500.00000 0 -14669964.548 5247114.951 20214933.664 10 0 59218 5400.00000 0 -16985664.547 4677641.074 18463279.958 10 0 59218 6300.00000 0 -19104926.649 4328933.958 16353538.424 10 0 59218 7200.00000 0 -20968189.216 4176503.429 13926529.132 10 0 59218 8100.00000 0 -22523624.297 4185571.167 11229248.211 10 0 59218 9000.00000 0 -23729170.919 4312744.511 8313966.829 10 0 59218 9900.00000 0 -24554179.051 4508062.991 5237225.192 10 0 59218 10800.00000 0 -24980595.039 4717331.439 2058740.281 10 0 59218 11700.00000 0 -25003638.147 4884641.077 -1159751.890 10 0 59218 12600.00000 0 -24631938.945 4954971.631 -4355696.955 10 0 59218 13500.00000 0 -23887132.964 4876763.635 -7466942.187 10 0 59218 14400.00000 0 -22802925.963 4604350.988 -10432951.461 10 0 59218 15300.00000 0 -21423669.646 4100149.420 -13195990.674 10 0 59218 16200.00000 0 -19802507.510 3336506.681 -15702259.683 10 0 59218 17100.00000 0 -17999168.785 2297134.473 -17902947.866 10 0 59218 18000.00000 0 -16077503.477 978059.886 -19755191.901 10 0 59218 18900.00000 0 -14102862.432 -611945.482 -21222916.582 10 0 59218 19800.00000 0 -12139432.802 -2451478.468 -22277541.868 10 0 59218 20700.00000 0 -10247641.105 -4507155.894 -22898542.182 10 0 59218 21600.00000 0 -8481732.963 -6734778.597 -23073847.051 10 0 59218 22500.00000 0 -6887630.875 -9080960.078 -22800075.384 10 0 59218 23400.00000 0 -5501159.547 -11485152.179 -22082598.989 10 0 59218 24300.00000 0 -4346712.486 -13881983.564 -20935434.333 10 0 59218 25200.00000 0 -3436414.780 -16203813.487 -19380964.876 10 0 59218 26100.00000 0 -2769816.038 -18383394.275 -17449499.658 10 0 59218 27000.00000 0 -2334124.866 -20356531.290 -15178676.995 10 0 59218 27900.00000 0 -2104973.428 -22064629.339 -12612725.161 10 0 59218 28800.00000 0 -2047678.232 -23457019.091 -9801594.855 10 0 59218 29700.00000 0 -2118942.308 -24492966.474 -6799980.765 10 0 59218 30600.00000 0 -2268925.366 -25143281.369 -3666251.688 10 0 59218 31500.00000 0 -2443593.090 -25391458.810 -461310.697 10 0 59218 32400.00000 0 -2587245.045 -25234305.711 2752592.001 10 0 59218 33300.00000 0 -2645113.382 -24682027.850 5913069.940 10 0 59218 34200.00000 0 -2565921.811 -23757774.529 8958811.019 10 0 59218 35100.00000 0 -2304296.251 -22496661.112 11830764.238 10 0 59218 36000.00000 0 -1822925.187 -20944311.378 14473279.592 10 0 59218 36900.00000 0 -1094378.537 -19154981.506 16835179.318 10 0 59218 37800.00000 0 -102508.449 -17189344.666 18870740.409 10 0 59218 38700.00000 0 1156627.009 -15112028.860 20540570.281 10 0 59218 39600.00000 0 2674356.156 -12989010.521 21812359.620 10 0 59218 40500.00000 0 4429519.625 -10884971.877 22661499.005 10 0 59218 41400.00000 0 6389125.426 -8860731.083 23071548.437 10 0 59218 42300.00000 0 8509506.838 -6970850.965 23034551.493 10 0 59218 43200.00000 0 10737936.283 -5261524.441 22551188.659 10 0 59218 44100.00000 0 13014629.616 -3768823.269 21630767.019 10 0 59218 45000.00000 0 15275059.034 -2517381.856 20291046.308 10 0 59218 45900.00000 0 17452480.101 -1519569.903 18557904.066 10 0 59218 46800.00000 0 19480569.234 -775187.684 16464845.443 10 0 59218 47700.00000 0 21296062.957 -271696.251 14052365.965 10 0 59218 48600.00000 0 22841289.778 15027.277 11367178.372 10 0 59218 49500.00000 0 24066489.381 119441.060 8461317.219 10 0 59218 50400.00000 0 24931822.087 84648.886 5391137.625 10 0 59218 51300.00000 0 25408984.030 -39659.339 2216226.822 10 0 59218 52200.00000 0 25482359.526 -199549.996 -1001750.873 10 0 59218 53100.00000 0 25149661.277 -339371.793 -4200253.102 10 0 59218 54000.00000 0 24422030.436 -404358.024 -7317079.043 10 0 59218 54900.00000 0 23323591.302 -343193.983 -10291585.153 10 0 59218 55800.00000 0 21890478.501 -110439.718 -13065872.594 10 0 59218 56700.00000 0 20169376.938 331295.878 -15585922.355 10 0 59218 57600.00000 0 18215635.484 1009523.188 -17802655.115 10 0 59218 58500.00000 0 16091033.588 1940461.258 -19672894.367 10 0 59218 59400.00000 0 13861294.605 3128109.676 -21160213.453 10 0 59218 60300.00000 0 11593450.347 4563843.623 -22235649.631 10 0 59218 61200.00000 0 9353167.574 6226550.523 -22878270.975 10 0 59218 62100.00000 0 7202148.510 8083303.708 -23075585.061 10 0 59218 63000.00000 0 5195714.131 10090545.837 -22823781.572 10 0 59218 63900.00000 0 3380671.130 12195733.047 -22127804.255 10 0 59218 64800.00000 0 1793551.207 14339371.473 -21001251.065 10 0 59218 65700.00000 0 459295.451 16457361.135 -19466104.674 10 0 59218 66600.00000 0 -609562.222 18483549.137 -17552298.857 10 0 59218 67500.00000 0 -1413179.848 20352385.303 -15297129.468 10 0 59218 68400.00000 0 -1964150.186 22001569.059 -12744521.744 10 0 59218 69300.00000 0 -2286714.056 23374576.556 -9944168.609 10 0 59218 70200.00000 0 -2415479.276 24422962.263 -6950557.151 10 0 59218 71100.00000 0 -2393701.038 25108338.644 -3821902.702 10 0 59218 72000.00000 0 -2271197.925 25403951.225 -619011.849 10 0 59218 72900.00000 0 -2101993.133 25295783.480 2595902.950 10 0 59218 73800.00000 0 -1941781.768 24783145.845 5760433.643 10 0 59218 74700.00000 0 -1845332.182 23878724.949 8813187.766 10 0 59218 75600.00000 0 -1863931.776 22608091.837 11694976.861 10 0 59218 76500.00000 0 -2042985.467 21008690.590 14349959.158 10 0 59218 77400.00000 0 -2419868.221 19128350.345 16726714.628 10 0 59218 78300.00000 0 -3022122.127 17023383.363 18779232.248 10 0 59218 79200.00000 0 -3866073.794 14756348.618 20467791.254 10 0 59218 80100.00000 0 -4955930.142 12393573.966 21759720.314 10 0 59218 81000.00000 0 -6283390.713 10002539.448 22630021.060 10 0 59218 81900.00000 0 -7827793.226 7649229.568 23061845.011 10 0 59218 82800.00000 0 -9556787.033 5395563.455 23046815.456 10 0 59218 83700.00000 0 -11427507.482 3297008.229 22585188.729 10 0 59218 84600.00000 0 -13388203.623 1400473.243 21685851.899 10 0 59218 85500.00000 0 -15380252.885 -257428.585 20366156.783 10 0 59219 0.00000 0 -17340480.413 -1651681.332 18651592.921 10 0 59219 900.00000 0 -19203687.950 -2769675.192 16575304.624 10 0 59219 1800.00000 0 -20905288.077 -3611491.577 14177461.034 10 0 59219 2700.00000 0 -22383934.500 -4189651.693 11504489.151 10 0 59219 3600.00000 0 -23584039.603 -4528340.654 8608184.193 10 0 59219 4500.00000 0 -24458073.323 -4662138.677 5544713.181 10 0 59219 5400.00000 0 -24968546.961 -4634313.315 2373530.354 10 0 59219 6300.00000 0 -25089597.795 -4494744.569 -843775.020 10 0 59219 7200.00000 0 -24808106.848 -4297570.751 -4044676.046 10 0 59219 8100.00000 0 -24124301.558 -4098655.028 -7166927.264 10 0 59219 9000.00000 0 -23051816.697 -3952980.584 -10149781.158 10 0 59219 9900.00000 0 -21617209.777 -3912085.582 -12935177.504 10 0 59219 10800.00000 0 -19858950.282 -4021647.752 -15468881.607 10 0 59219 11700.00000 0 -17825924.444 -4319322.194 -17701548.381 10 0 59219 12600.00000 0 -15575517.874 -4832925.272 -19589690.698 10 0 59219 13500.00000 0 -13171356.249 -5579042.860 -21096532.559 10 0 59219 14400.00000 0 -10680798.679 -6562123.045 -22192730.074 10 0 59219 15300.00000 0 -8172288.778 -7774092.861 -22856945.909 10 0 59219 16200.00000 0 -5712674.331 -9194516.231 -23076266.014 10 0 59219 17100.00000 0 -3364607.475 -10791287.464 -22846450.572 10 0 59219 18000.00000 0 -1184133.925 -12521831.725 -22172014.447 10 0 59219 18900.00000 0 781428.570 -14334762.600 -21066135.787 10 0 59219 19800.00000 0 2495234.647 -16171927.455 -19550394.773 10 0 59219 20700.00000 0 3932206.708 -17970754.790 -17654347.888 10 0 59219 21600.00000 0 5079828.449 -19666805.121 -15414946.239 10 0 59219 22500.00000 0 5938404.935 -21196418.211 -12875809.547 10 0 59219 23400.00000 0 6520780.119 -22499345.363 -10086370.336 10 0 59219 24300.00000 0 6851525.637 -23521256.143 -7100905.405 10 0 59219 25200.00000 0 6965637.031 -24216014.204 -3977473.879 10 0 59219 26100.00000 0 6906794.202 -24547626.665 -776783.144 10 0 59219 27000.00000 0 6725261.229 -24491785.377 2438994.748 10 0 59219 27900.00000 0 6475515.735 -24036935.706 5607432.734 10 0 59219 28800.00000 0 6213709.038 -23184828.462 8667060.441 10 0 59219 29700.00000 0 5995065.236 -21950532.389 11558554.262 10 0 59219 30600.00000 0 5871329.511 -20361907.263 14225882.791 10 0 59219 31500.00000 0 5888373.479 -18458560.166 16617385.653 10 0 59219 32400.00000 0 6084058.452 -16290328.891 18686765.485 10 0 59219 33300.00000 0 6486446.387 -13915355.784 20393974.758 10 0 59219 34200.00000 0 7112433.478 -11397832.104 21705981.237 10 0 59219 35100.00000 0 7966863.648 -8805506.129 22597398.439 10 0 59219 36000.00000 0 9042159.222 -6207057.603 23050969.933 10 0 59219 36900.00000 0 10318484.603 -3669446.403 23057898.989 10 0 59219 37800.00000 0 11764436.855 -1255343.986 22618017.798 10 0 59219 38700.00000 0 13338235.405 979247.351 21739793.226 10 0 59219 39600.00000 0 14989362.458 2987089.984 20440168.783 10 0 59219 40500.00000 0 16660587.099 4731435.621 18744245.348 10 0 59219 41400.00000 0 18290290.046 6187308.530 16684805.841 10 0 59219 42300.00000 0 19814993.205 7342294.698 14301691.980 10 0 59219 43200.00000 0 21171989.342 8196804.622 11641043.887 10 0 59219 44100.00000 0 22301962.447 8763799.089 8754416.033 10 0 59219 45000.00000 0 23151489.182 9067989.536 5697785.647 10 0 59219 45900.00000 0 23675316.179 9144546.708 2530471.997 10 0 59219 46800.00000 0 23838316.837 9037371.969 -686012.972 10 0 59219 47700.00000 0 23617044.212 8797004.335 -3889160.307 10 0 59219 48600.00000 0 23000813.353 8478251.944 -7016682.586 10 0 59219 49500.00000 0 21992266.008 8137648.622 -10007731.053 10 0 59219 50400.00000 0 20607392.468 7830843.944 -12804086.839 10 0 59219 51300.00000 0 18875008.256 7610038.208 -15351302.238 10 0 59219 52200.00000 0 16835706.463 7521572.047 -17599768.947 10 0 59219 53100.00000 0 14540328.905 7603773.849 -19505691.610 10 0 59219 54000.00000 0 12048019.563 7885157.278 -21031947.120 10 0 59219 54900.00000 0 9423941.490 8383046.236 -22148812.490 10 0 59219 55800.00000 0 6736752.595 9102686.364 -22834546.837 10 0 59219 56700.00000 0 4055945.704 10036881.497 -23075816.105 10 0 59219 57600.00000 0 1449163.892 11166171.105 -22867952.296 10 0 59219 58500.00000 0 -1020396.973 12459541.800 -22215042.348 10 0 59219 59400.00000 0 -3296390.451 13875643.288 -21129845.130 10 0 59219 60300.00000 0 -5331426.901 15364457.834 -19633538.396 10 0 59219 61200.00000 0 -7088798.814 16869352.979 -17755300.901 10 0 59219 62100.00000 0 -8543753.217 18329431.119 -15531738.093 10 0 59219 63000.00000 0 -9684259.420 19682076.919 -13006162.803 10 0 59219 63900.00000 0 -10511241.583 20865595.122 -10227745.381 10 0 59219 64800.00000 0 -11038268.303 21821827.536 -7250550.196 10 0 59219 65700.00000 0 -11290714.247 22498638.846 -4132477.743 10 0 59219 66600.00000 0 -11304431.078 22852166.505 -934133.539 10 0 59219 67500.00000 0 -11123985.593 22848740.019 2282353.625 10 0 59219 68400.00000 0 -10800541.040 22466388.994 5454540.650 10 0 59219 69300.00000 0 -10389472.402 21695876.805 8520882.301 10 0 59219 70200.00000 0 -9947817.356 20541216.804 11421922.892 10 0 59219 71100.00000 0 -9531671.125 19019649.723 14101444.422 10 0 59219 72000.00000 0 -9193635.392 17161083.579 16507549.129 10 0 59219 72900.00000 0 -8980428.743 15007019.650 18593656.151 10 0 59219 73800.00000 0 -8930758.979 12609009.301 20319393.859 10 0 59219 74700.00000 0 -9073546.327 10026705.693 21651371.579 10 0 59219 75600.00000 0 -9426571.785 7325590.794 22563816.904 10 0 59219 76500.00000 0 -9995607.008 4574471.147 23039067.349 10 0 59219 77400.00000 0 -10774062.155 1842845.152 23067907.690 10 0 59219 78300.00000 0 -11743166.693 -801750.392 22649747.104 10 0 59219 79200.00000 0 -12872676.238 -3296306.095 21792632.904 10 0 59219 80100.00000 0 -14122076.759 -5584713.184 20513100.461 10 0 59219 81000.00000 0 -15442236.990 -7619847.133 18835861.677 10 0 59219 81900.00000 0 -16777441.199 -9365276.438 16793337.107 10 0 59219 82800.00000 0 -18067718.527 -10796526.352 14425039.691 10 0 59219 83700.00000 0 -19251372.387 -11901845.636 11776820.791 10 0 59219 84600.00000 0 -20267604.717 -12682444.758 8899991.823 10 0 59219 85500.00000 0 -21059125.259 -13152195.679 5850337.558 99